This is the latest recevied weather packets stored in our database for station/object SQ2WB-13. If no packets are shown the sender has not sent any weather packets the latest 10 day(s).
| Time | Temp. | Humidity | Pressure | Rain* | Wind** | Luminosity | Snow |
|---|---|---|---|---|---|---|---|
| 1777728601 | 26.67° C | 28% | 1011.8 hPa | 0 mm | - | - | - |
| 1777727701 | 27.78° C | 28% | 1011.8 hPa | 0 mm | - | - | - |
| 1777726802 | 26.67° C | 26% | 1012.1 hPa | 0 mm | - | - | - |
| 1777725901 | 26.67° C | 27% | 1012.1 hPa | 0 mm | - | - | - |
| 1777725004 | 26.67° C | 27% | 1012.5 hPa | 0 mm | - | - | - |
| 1777724101 | 25.56° C | 29% | 1013.2 hPa | 0 mm | - | - | - |
| 1777723202 | 26.67° C | 29% | 1013.2 hPa | 0 mm | - | - | - |
| 1777722301 | 26.67° C | 29% | 1013.5 hPa | 0 mm | - | - | - |
| 1777721401 | 26.67° C | 28% | 1013.5 hPa | 0 mm | - | - | - |
| 1777720501 | 25.56° C | 28% | 1013.5 hPa | 0 mm | - | - | - |
| 1777719601 | 25° C | 28% | 1013.8 hPa | 0 mm | - | - | - |
| 1777718701 | 25.56° C | 30% | 1014.2 hPa | 0 mm | - | - | - |
| 1777717801 | 26.67° C | 28% | 1014.2 hPa | 0 mm | - | - | - |
| 1777716901 | 25.56° C | 30% | 1014.2 hPa | 0 mm | - | - | - |
| 1777716001 | 25.56° C | 29% | 1014.5 hPa | 0 mm | - | - | - |
| 1777715101 | 26.67° C | 31% | 1014.5 hPa | 0 mm | - | - | - |
| 1777714201 | 25.56° C | 33% | 1014.5 hPa | 0 mm | - | - | - |
| 1777713301 | 23.89° C | 31% | 1014.5 hPa | 0 mm | - | - | - |
| 1777711501 | 22.78° C | 36% | 1014.9 hPa | 0 mm | - | - | - |
| 1777710601 | 22.78° C | 36% | 1014.9 hPa | 0 mm | - | - | - |
| 1777709701 | 22.78° C | 36% | 1015.2 hPa | 0 mm | - | - | - |
| 1777708801 | 21.67° C | 38% | 1015.2 hPa | 0 mm | - | - | - |
| 1777707902 | 21.67° C | 39% | 1015.2 hPa | 0 mm | - | - | - |
| 1777707001 | 20° C | 39% | 1014.9 hPa | 0 mm | - | - | - |
| 1777706101 | 20° C | 40% | 1014.9 hPa | 0 mm | - | - | - |
* Rain latest hour (hover to see other rain measurements)
** Current wind speed in m/s (hover to see current wind gust speed)